Location: Unspecified
(0.0000°N, 0.0000°E)
Time: 07:10:54
(UTC+00:00)

Envisat - Pass Details

Date: 23 July 2021
Orbit: 764 x 766 km, 98.2° (Epoch: 31 July)

Event Time Altitude Azimuth Distance (km) Brightness Sun altitude
Rises 03:52:07 0° 46° (NE) 3,215 7.2 -31.3°
Reaches altitude 10° 03:55:27 10° 70° (ENE) 2,293 6.4 -30.6°
Maximum altitude 03:58:11 15° 103° (ESE) 1,988 5.7 -29.9°
Drops below altitude 10° 04:00:55 10° 136° (SE) 2,299 5.7 -29.3°
Sets 04:04:15 0° 159° (SSE) 3,229 6.2 -28.5°
